Effective Sunday, March 17, 2024, the National Weather Service National Data Buoy Center will discontinue its Dial-A-Buoy Interactive Voice Response system. For more information, see Service Change Notice 24-06 (PDF).

Station 46240 - Cabrillo Point, Monterey Bay, CA (158) Image indicating link to RSS feed of recent meteorological observations for station 46240


Conditions at 46240 as of
(3:26 am PST)
1126 GMT on 02/25/2024:
     

Click on the graph icon in the table below to see a time series plot of the last five days of that observation.

5-day plot - Wave Height Wave Height (WVHT): 2.6 ft
5-day plot - Dominant Wave Period Dominant Wave Period (DPD): 13 sec
5-day plot - Average Wave Period Average Period (APD):10.5 sec
5-day plot - Mean Wave Direction Mean Wave Direction (MWD): N ( 352 deg true )
5-day plot - Water Temperature Water Temperature (WTMP): 57.6 °F
Previous observations
TIME
(PST)
5-day plot - Wind Direction
WDIR
 
5-day plot - Wind Speed
WSPD
kts
5-day plot - Wind Gust
GST
kts
5-day plot - Wave Height
WVHT
ft
5-day plot - Dominant Wave Period
DPD
sec
5-day plot - Average Wave Period
APD
sec
5-day plot - Mean Wave Direction
MWD
 
5-day plot - Atmospheric Pressure
PRES
in
5-day plot - Pressure Tendency
PTDY
in
5-day plot - Air Temperature
ATMP
°F
5-day plot - Water Temperature
WTMP
°F
5-day plot - Dew Point
DEWP
°F
5-day plot - Salinity
SAL
psu
5-day plot - Visibility
VIS
nmi
5-day plot - Tide (above MLLW)
TIDE
ft
2024-02-25 02:56 am--- 2.6 1310.3 N--- 57.6----
2024-02-25 02:26 am--- 2.3 1310.6 N--- 57.7----
2024-02-25 01:56 am--- 2.6 1310.8 N--- 57.7----
2024-02-25 01:26 am--- 2.6 1310.8NNW--- 57.6----
2024-02-25 12:56 am--- 2.3 1310.5 N--- 57.6----
2024-02-25 12:26 am--- 2.3 1210.5 N--- 57.6----
2024-02-24 11:56 pm--- 2.3 1210.4 N--- 57.6----
2024-02-24 11:26 pm--- 2.3 1210.5 N--- 57.7----
2024-02-24 10:56 pm--- 2.6 1210.4 N--- 57.7----
2024-02-24 10:26 pm--- 2.6 1310.7 N--- 57.7----
2024-02-24 09:56 pm--- 2.3 1210.5 N--- 57.7----
2024-02-24 09:26 pm--- 2.6 1110.3 N--- 57.7----
2024-02-24 08:56 pm--- 2.6 1110.3NNW--- 57.7----
2024-02-24 08:26 pm--- 2.6 1310.2 N--- 57.7----
2024-02-24 07:56 pm--- 2.3 119.7NNW--- 57.6----
2024-02-24 07:26 pm--- 2.3 129.8 N--- 57.7----
2024-02-24 06:56 pm--- 2.3 139.9 N--- 57.6----
2024-02-24 06:26 pm--- 2.6 129.9 N--- 57.4----
2024-02-24 05:56 pm--- 2.6 1210.1 N--- 57.4----
2024-02-24 05:26 pm--- 2.6 129.8 N--- 57.6----
2024-02-24 04:56 pm--- 2.6 1110.0 N--- 57.6----
2024-02-24 04:26 pm--- 2.3 119.6 N--- 57.9----
2024-02-24 03:56 pm--- 2.6 129.5 N--- 57.9----
2024-02-24 03:26 pm--- 2.6 129.7 N--- 58.3----
2024-02-24 02:56 pm--- 3.0 1210.2 N--- 58.5----
2024-02-24 02:26 pm--- 2.6 129.7 N--- 58.5----
2024-02-24 01:56 pm--- 3.0 139.7 N--- 58.5----
2024-02-24 01:26 pm--- 2.6 119.8 N--- 58.3----
2024-02-24 12:56 pm--- 3.3 1310.3NNW--- 58.3----
2024-02-24 12:26 pm--- 2.6 1310.3NNW--- 57.9----
2024-02-24 11:56 am--- 2.6 1310.2 N--- 57.7----
2024-02-24 11:26 am--- 3.0 1310.5 N--- 57.7----
2024-02-24 10:56 am--- 3.3 1310.6NNW--- 57.9----
2024-02-24 10:26 am--- 3.0 1310.1 N--- 57.9----
2024-02-24 09:56 am--- 3.0 139.9 N--- 57.7----
2024-02-24 09:26 am--- 3.0 129.6NNW--- 57.0----
2024-02-24 08:56 am--- 3.0 119.4NNW--- 57.0----
2024-02-24 08:26 am--- 3.3 1310.4 N--- 57.0----
2024-02-24 07:56 am--- 3.3 139.8 N--- 56.8----
2024-02-24 07:26 am--- 3.3 139.7 N--- 56.8----
2024-02-24 06:56 am--- 3.0 1210.1 N--- 57.0----
2024-02-24 06:26 am--- 3.6 1210.3 N--- 56.8----
2024-02-24 05:56 am--- 3.3 1310.1 N--- 56.8----
2024-02-24 05:26 am--- 3.3 1210.0 N--- 56.8----
2024-02-24 04:56 am--- 3.6 1310.0NNW--- 57.0----
2024-02-24 04:26 am--- 3.9 1310.0NNW--- 56.8----
2024-02-24 03:56 am--- 3.6 139.9 N--- 57.0----
2024-02-24 03:26 am--- 3.6 139.9 N--- 57.0----
2024-02-24 02:56 am--- 3.6 139.7 N--- 57.0----

Detailed Wave Summary
for 46240 as of (3:26 am PST)
1126 GMT on 02/25/2024:

These wave data are displayed in rounded times.

     

Click on the graph icon in the table below to see a time series plot of the last five days of that observation.

5-day plot - Significant Wave Height Significant Wave Height (WVHT): 2.6 ft
5-day plot - Swell Height Swell Height (SwH): 2.3 ft
5-day plot - Swell Period Swell Period (SwP): 12.5 sec
5-day plot - Swell Direction Swell Direction (SwD): N
5-day plot - Wind Wave Height Wind Wave Height (WWH): 1.0 ft
5-day plot - Wind Wave Period Wind Wave Period (WWP): 9.9 sec
5-day plot - Wind Wave Direction Wind Wave Direction (WWD):NNW
5-day plot - Average Wave Period Average Wave Period (APD): 10.5 sec
Previous observations
TIME
(PST)
5-day plot - Wave Height
WVHT
ft
5-day plot - Swell Height
SwH
ft
5-day plot - Swell Period
SwP
sec
5-day plot - Swell Direction
SwD
 
5-day plot - Wind Wave Height
WWH
ft
5-day plot - Wind Wave Period
WWP
sec
5-day plot - Wind Wave Direction
WWD
 
5-day plot - Wave Steepness
STEEPNESS
 
5-day plot - Average Wave Period
APD
sec
2024-02-25 02:56 am 2.6 2.3 12.5 N 1.3 9.9 NNW N/A 10.3
2024-02-25 02:26 am 2.3 2.0 12.5 N 1.0 9.9 NNW N/A 10.6
2024-02-25 01:56 am 2.6 2.3 12.5 N 1.0 9.9 NNW N/A 10.8
2024-02-25 01:26 am 2.6 2.3 12.5NNW 1.0 9.9 NNW N/A 10.8
2024-02-25 12:56 am 2.3 2.0 13.3 N 1.0 9.9 NNW N/A 10.5
2024-02-25 12:26 am 2.3 2.3 11.8 N 1.0 9.9 NNW N/A 10.5
2024-02-24 11:56 pm 2.3 2.0 11.8 N 1.0 9.9 NNW N/A 10.4
2024-02-24 11:26 pm 2.3 2.0 11.8 N 1.0 9.9 NNW N/A 10.5
2024-02-24 10:56 pm 2.6 2.3 11.8 N 1.3 9.9 NNW N/A 10.4
2024-02-24 10:26 pm 2.6 2.3 12.5 N 1.0 9.9 NNW N/A 10.7
2024-02-24 09:56 pm 2.3 2.3 11.8 N 1.0 9.9 NNW N/A 10.5
2024-02-24 09:26 pm 2.6 2.3 11.1 N 1.0 9.9 NNW N/A 10.3
2024-02-24 08:56 pm 2.6 2.3 11.1NNW 1.0 9.9 NNW N/A 10.3
2024-02-24 08:26 pm 2.6 2.3 12.5 N 1.3 9.9 NNW N/A 10.2
2024-02-24 07:56 pm 2.3 2.0 10.5NNW 1.3 9.9 NNW N/A 9.7
2024-02-24 07:26 pm 2.3 2.0 11.8 N 1.3 9.9 NNW N/A 9.8
2024-02-24 06:56 pm 2.3 2.0 12.5 N 1.0 9.9 NNW N/A 9.9
2024-02-24 06:26 pm 2.6 2.3 11.8 N 1.3 9.9 NNW N/A 9.9
2024-02-24 05:56 pm 2.6 2.3 11.8 N 1.3 9.9 NNW N/A 10.1
2024-02-24 05:26 pm 2.6 2.3 11.8 N 1.3 9.9 NNW N/A 9.8
2024-02-24 04:56 pm 2.6 2.3 11.1 N 1.0 9.1 NNW N/A 10.0
2024-02-24 04:26 pm 2.3 2.0 11.1 N 1.3 9.9 NNW N/A 9.6
2024-02-24 03:56 pm 2.6 2.3 11.8 N 1.3 9.9 NNW N/A 9.5
2024-02-24 03:26 pm 2.6 2.3 11.8 N 1.3 9.9 NNW N/A 9.7
2024-02-24 02:56 pm 3.0 2.6 11.8 N 1.3 9.9 NNW SWELL 10.2
2024-02-24 02:26 pm 2.6 2.3 11.8 N 1.3 9.9 NNW SWELL 9.7
2024-02-24 01:56 pm 3.0 2.6 12.5 N 1.6 9.9 NNW SWELL 9.7
2024-02-24 01:26 pm 2.6 2.3 11.1 N 1.3 9.9 NNW N/A 9.8
2024-02-24 12:56 pm 3.3 3.0 12.5NNW 1.3 9.9 NNW SWELL 10.3
2024-02-24 12:26 pm 2.6 2.6 12.5NNW 1.3 9.9 NNW SWELL 10.3
2024-02-24 11:56 am 2.6 2.3 13.3 N 1.0 9.9 NNW SWELL 10.2
2024-02-24 11:26 am 3.0 2.6 12.5 N 1.3 9.9 NNW SWELL 10.5
2024-02-24 10:56 am 3.3 3.0 12.5NNW 1.3 9.9 NNW SWELL 10.6
2024-02-24 10:26 am 2.6 2.6 12.5 N 1.0 9.9 NNW SWELL 10.1
2024-02-24 09:56 am 2.6 2.6 13.3 N 1.3 9.9 NNW SWELL 9.9
2024-02-24 09:26 am 3.0 2.6 11.8NNW 1.3 9.9 NNW SWELL 9.6
2024-02-24 08:56 am 3.0 2.6 11.1NNW 1.3 9.9 NNW SWELL 9.4
2024-02-24 08:26 am 3.3 3.3 12.5 N 1.3 9.9 NNW SWELL 10.4
2024-02-24 07:56 am 3.3 3.0 13.3 N 1.6 9.9 NNW SWELL 9.8
2024-02-24 07:26 am 3.3 3.0 12.5 N 1.6 9.9 NNW SWELL 9.7
2024-02-24 06:56 am 3.0 2.6 11.8 N 1.3 9.9 NNW SWELL 10.1
2024-02-24 06:26 am 3.6 3.3 11.8 N 1.6 9.9 NNW SWELL 10.3
2024-02-24 05:56 am 3.3 3.0 13.3 N 1.6 9.9 NNW SWELL 10.1
2024-02-24 05:26 am 3.3 2.6 11.8 N 1.6 9.9 NNW SWELL 10.0
2024-02-24 04:56 am 3.6 3.0 12.5NNW 2.0 9.9 NNW SWELL 10.0
2024-02-24 04:26 am 3.9 3.6 12.5NNW 1.6 9.9 NNW SWELL 10.0
2024-02-24 03:56 am 3.6 3.3 13.3 N 2.0 9.9 NNW SWELL 9.9
2024-02-24 03:26 am 3.6 3.0 13.3- 1.6 9.9 NNW SWELL 9.9
2024-02-24 02:56 am 3.6 3.0 13.3 N 1.6 9.9 NNW SWELL 9.7

Plot of wave energy versus frequency (and period)